Flag for France Weather past 2 weeks in Bastia, Corsica, France

Now
75 °F

Clear.


Feels Like: 76 °F
Forecast: 72 / 86 °F
Wind: 2 mph from North

Location: Bastia Airport

Current Time: Jul 5, 2015 at 2:16:10 AM

Latest Report: Jul 5, 2015 at 1:30 AM


Visibility: 10 mi

Pressure: 30.09 "Hg

Humidity: 78%

Dew point: 68 °F

Location of BastiaLocation

Historic Weather in Bastia — Graph

°F

Bastia temperature yesterday

Maximum temperature yesterday: 91 °F (at 2:00 PM)
Minimum temperature yesterday: 75 °F (at 6:00 AM)
Average temperature yesterday: 84 °F

Past Weeks' High & Low Weather Summary

 TemperatureHumidityPressure
High93 °F (Jul 3, 3:00 PM)94% (Jun 20, 1:30 AM)30.24 "Hg (Jun 20, 1:30 AM)
Low59 °F (Jun 26, 5:30 AM)28% (Jun 25, 12:30 PM)29.77 "Hg (Jun 23, 4:00 PM)
Average76 °F68%30.04 "Hg
* Reported Jun 20 1:00 AM — Jul 5 1:00 AM, Bastia, Weather by CustomWeather, © 2015

Note: Actual official high and low records may vary slightly from our data, if they occured in-between our weather recording intervals... More about our weather records

Advertising

Bastia weather history for previous 24 hours

 ConditionsComfort  
Time TempWeatherWind HumidityBarometerVisibility
1:00 AM
Sun, Jul 5
75 °FClear.1 mph83%30.09 "Hg10 mi
12:30 AM75 °FClear.2 mph89%30.09 "Hg10 mi
12:00 AM75 °FClear.2 mph89%30.09 "Hg10 mi
11:30 PM
Sat, Jul 4
75 °FClear.2 mph89%30.09 "Hg10 mi
11:00 PM77 °FClear.2 mph83%30.09 "Hg10 mi
10:30 PM77 °FClear.No wind83%30.09 "Hg10 mi
10:00 PM79 °FSunny.No wind79%30.09 "Hg10 mi
9:30 PM81 °FSunny.No wind74%30.09 "Hg10 mi
9:00 PM82 °FSunny.1 mph70%30.09 "Hg10 mi
8:30 PM84 °FSunny.2 mph66%30.09 "Hg10 mi
8:00 PM86 °FSunny.2 mph62%30.09 "Hg10 mi
7:30 PM88 °FSunny.3 mph59%30.09 "Hg10 mi
7:00 PM88 °FPassing clouds.5 mph55%30.09 "HgN/A
6:30 PM90 °FPassing clouds.3 mph49%30.12 "HgN/A
6:00 PM90 °FPassing clouds.3 mph52%30.12 "HgN/A
5:30 PM90 °FPassing clouds.5 mph49%30.12 "HgN/A
5:00 PM90 °FPassing clouds.5 mph52%30.12 "HgN/A
4:30 PM90 °FPassing clouds.7 mph52%30.12 "HgN/A
4:00 PM91 °FPassing clouds.7 mph49%30.12 "HgN/A
3:30 PM90 °FPassing clouds.7 mph52%30.12 "HgN/A
2:30 PM90 °FPassing clouds.7 mph49%30.15 "HgN/A
2:00 PM91 °FPassing clouds.7 mph49%30.15 "HgN/A
1:30 PM90 °FPassing clouds.6 mph52%30.15 "HgN/A
1:00 PM90 °FPassing clouds.7 mph55%30.15 "HgN/A
12:30 PM90 °FSunny.6 mph55%30.15 "Hg10 mi
12:00 PM90 °FPassing clouds.6 mph52%30.15 "HgN/A
11:30 AM88 °FSunny.7 mph55%30.18 "Hg10 mi
11:00 AM90 °FPassing clouds.6 mph52%30.18 "HgN/A
10:30 AM88 °FPassing clouds.6 mph52%30.18 "HgN/A
10:00 AM88 °FPassing clouds.6 mph52%30.18 "HgN/A
9:30 AM88 °FSunny.3 mph52%30.18 "Hg10 mi
9:00 AM88 °FSunny.3 mph49%30.18 "Hg10 mi
8:34 AM86 °FSunny.2 mph55%30.15 "Hg10 mi
8:00 AM84 °FSunny.2 mph58%30.15 "Hg10 mi
7:30 AM81 °FSunny.No wind62%30.15 "Hg10 mi
7:00 AM77 °FSunny.2 mph65%30.15 "Hg10 mi
6:30 AM79 °FPassing clouds.5 mph61%30.15 "HgN/A
6:00 AM75 °FClear.5 mph69%30.15 "Hg10 mi
5:30 AM77 °FClear.2 mph65%30.18 "Hg10 mi
5:00 AM79 °FPassing clouds.8 mph61%30.18 "HgN/A
4:30 AM81 °FClear.9 mph54%30.18 "Hg10 mi
4:00 AM79 °FClear.10 mph58%30.18 "Hg10 mi
3:30 AM77 °FClear.5 mph74%30.21 "Hg10 mi
3:00 AM79 °FPassing clouds.6 mph79%30.21 "HgN/A
2:30 AM79 °FClear.8 mph84%30.18 "Hg10 mi
2:00 AM81 °FClear.14 mph74%30.21 "Hg10 mi
Weather by CustomWeather, © 2015

See weather overviewHow to use our weather pages